| time (UTC) | temp F | wind direction | speed MPH | gust MPH | rain 1hr in | rain 24hr in | rain mn in | humidity % | barometer mb |
| 20260507043057 | 46 | 0 | 0.0 | 2.0 | 0.00 | 0.00 | 0.00 | 88 | 1015.9 |
| 20260507041557 | 46 | 0 | 1.0 | 2.0 | 0.00 | 0.00 | 0.00 | 87 | 1015.9 |
| 20260507040106 | 46 | 23 | 0.0 | 3.0 | 0.00 | 0.00 | 0.00 | 87 | 1015.9 |
| 20260507034607 | 46 | 24 | 1.0 | 2.0 | 0.00 | 0.00 | 0.00 | 87 | 1015.8 |
| 20260507033100 | 47 | 24 | 1.0 | 3.0 | 0.00 | 0.00 | 0.00 | 87 | 1015.6 |
| 20260507031556 | 47 | 26 | 1.0 | 3.0 | 0.00 | 0.00 | 0.00 | 87 | 1015.6 |
| 20260507030056 | 47 | 31 | 1.0 | 4.0 | 0.00 | 0.00 | 0.00 | 87 | 1015.6 |
| 20260507024558 | 47 | 21 | 1.0 | 3.0 | 0.00 | 0.00 | 0.00 | 87 | 1015.6 |
| 20260507023057 | 47 | 20 | 1.0 | 3.0 | 0.00 | 0.00 | 0.00 | 87 | 1015.5 |
| 20260507021611 | 47 | 24 | 2.0 | 4.0 | 0.00 | 0.00 | 0.00 | 86 | 1015.4 |
| 20260507020059 | 47 | 30 | 1.0 | 3.0 | 0.00 | 0.00 | 0.00 | 86 | 1015.3 |
| 20260507014600 | 47 | 12 | 0.0 | 4.0 | 0.00 | 0.00 | 0.00 | 86 | 1015.2 |
| 20260507013057 | 47 | 360 | 1.0 | 4.0 | 0.00 | 0.00 | 0.00 | 86 | 1015.2 |
| 20260507011558 | 47 | 17 | 1.0 | 4.0 | 0.00 | 0.00 | 0.00 | 86 | 1015.3 |
| 20260507004557 | 47 | 12 | 1.0 | 4.0 | 0.00 | 0.00 | 0.00 | 86 | 1015.3 |
| 20260507003104 | 47 | 15 | 1.0 | 4.0 | 0.00 | 0.00 | 0.00 | 86 | 1015.3 |
| 20260507001606 | 47 | 20 | 2.0 | 3.0 | 0.00 | 0.00 | 0.00 | 86 | 1015.2 |
| 20260507000101 | 47 | 11 | 1.0 | 4.0 | 0.00 | 0.00 | 0.00 | 86 | 1015.3 |
| 20260506234626 | 48 | 11 | 1.0 | 3.0 | 0.00 | 0.00 | 0.00 | 85 | 1015.2 |
| 20260506233056 | 48 | 23 | 1.0 | 4.0 | 0.00 | 0.00 | 0.00 | 85 | 1015.3 |
| 20260506231557 | 48 | 58 | 0.0 | 4.0 | 0.00 | 0.00 | 0.00 | 85 | 1015.1 |
| 20260506230059 | 48 | 0 | 0.0 | 0.0 | 0.00 | 0.00 | 0.00 | 85 | 1015.3 |
| 20260506224556 | 48 | 0 | 0.0 | 0.0 | 0.00 | 0.00 | 0.00 | 84 | 1015.3 |
| 20260506223101 | 48 | 28 | 0.0 | 3.0 | 0.00 | 0.00 | 0.00 | 84 | 1015.2 |
| 20260506221557 | 48 | 30 | 0.0 | 3.0 | 0.00 | 0.00 | 0.00 | 84 | 1015.2 |
| 20260506220056 | 48 | 30 | 0.0 | 2.0 | 0.00 | 0.00 | 0.00 | 84 | 1015.1 |
| 20260506214557 | 49 | 28 | 0.0 | 3.0 | 0.00 | 0.00 | 0.00 | 85 | 1015.1 |
| 20260506213055 | 49 | 0 | 0.0 | 4.0 | 0.00 | 0.00 | 0.00 | 84 | 1015.0 |
| 20260506211558 | 49 | 23 | 0.0 | 3.0 | 0.00 | 0.00 | 0.00 | 85 | 1015.0 |
| 20260506210056 | 49 | 0 | 0.0 | 0.0 | 0.00 | 0.00 | 0.00 | 85 | 1014.8 |
| 20260506204603 | 49 | 0 | 0.0 | 3.0 | 0.00 | 0.00 | 0.00 | 85 | 1014.9 |
| 20260506203058 | 49 | 0 | 1.0 | 3.0 | 0.00 | 0.00 | 0.00 | 84 | 1014.7 |
| 20260506201558 | 49 | 32 | 1.0 | 3.0 | 0.00 | 0.00 | 0.00 | 84 | 1014.6 |
| 20260506200111 | 49 | 34 | 0.0 | 4.0 | 0.00 | 0.00 | 0.00 | 84 | 1014.4 |
| 20260506194614 | 49 | 22 | 1.0 | 4.0 | 0.00 | 0.00 | 0.00 | 84 | 1014.3 |
| 20260506193057 | 50 | 12 | 1.0 | 4.0 | 0.00 | 0.00 | 0.00 | 83 | 1014.2 |
| 20260506191556 | 50 | 0 | 2.0 | 6.0 | 0.00 | 0.00 | 0.00 | 82 | 1014.0 |
| 20260506190100 | 50 | 24 | 2.0 | 5.0 | 0.00 | 0.00 | 0.00 | 82 | 1014.0 |
| 20260506184605 | 51 | 340 | 2.0 | 8.0 | 0.00 | 0.00 | 0.00 | 80 | 1013.8 |
| 20260506183103 | 51 | 5 | 3.0 | 10.0 | 0.00 | 0.00 | 0.00 | 79 | 1013.7 |
| 20260506181602 | 52 | 42 | 4.0 | 11.0 | 0.00 | 0.00 | 0.00 | 77 | 1013.6 |
| 20260506180057 | 52 | 11 | 2.0 | 10.0 | 0.00 | 0.00 | 0.00 | 76 | 1013.5 |
| 20260506174602 | 53 | 40 | 4.0 | 10.0 | 0.00 | 0.00 | 0.00 | 74 | 1013.4 |
| 20260506173111 | 55 | 34 | 6.0 | 11.0 | 0.00 | 0.00 | 0.00 | 73 | 1013.2 |
| 20260506171600 | 56 | 41 | 4.0 | 9.0 | 0.00 | 0.00 | 0.00 | 71 | 1013.2 |
| 20260506170056 | 57 | 0 | 1.0 | 9.0 | 0.00 | 0.00 | 0.00 | 67 | 1012.9 |
| 20260506164558 | 56 | 14 | 2.0 | 7.0 | 0.00 | 0.00 | 0.00 | 67 | 1013.0 |
| 20260506163057 | 57 | 11 | 2.0 | 9.0 | 0.00 | 0.00 | 0.00 | 67 | 1013.0 |
| 20260506161605 | 57 | 343 | 5.0 | 13.0 | 0.00 | 0.00 | 0.00 | 64 | 1013.0 |
| 20260506160058 | 58 | 59 | 5.0 | 12.0 | 0.00 | 0.00 | 0.00 | 65 | 1013.0 |
| 20260506154558 | 59 | 355 | 5.0 | 10.0 | 0.00 | 0.00 | 0.00 | 62 | 1012.9 |
| 20260506153056 | 59 | 347 | 6.0 | 11.0 | 0.00 | 0.00 | 0.00 | 62 | 1012.9 |
| 20260506151608 | 61 | 33 | 5.0 | 11.0 | 0.00 | 0.00 | 0.00 | 59 | 1012.9 |
| 20260506150056 | 61 | 0 | 4.0 | 15.0 | 0.00 | 0.00 | 0.00 | 60 | 1012.8 |
| 20260506144603 | 62 | 19 | 7.0 | 16.0 | 0.00 | 0.00 | 0.00 | 57 | 1012.9 |
| 20260506143100 | 62 | 355 | 7.0 | 15.0 | 0.00 | 0.00 | 0.00 | 57 | 1012.8 |
| 20260506141559 | 61 | 355 | 6.0 | 14.0 | 0.00 | 0.00 | 0.00 | 59 | 1012.8 |
| 20260506140108 | 60 | 355 | 6.0 | 13.0 | 0.00 | 0.00 | 0.00 | 61 | 1012.9 |
| 20260506134557 | 59 | 62 | 5.0 | 13.0 | 0.00 | 0.00 | 0.00 | 57 | 1013.0 |
| 20260506133100 | 60 | 14 | 7.0 | 14.0 | 0.00 | 0.00 | 0.00 | 58 | 1012.9 |
| 20260506131557 | 58 | 355 | 5.0 | 11.0 | 0.00 | 0.00 | 0.00 | 59 | 1012.9 |
| 20260506130120 | 58 | 30 | 5.0 | 16.0 | 0.00 | 0.00 | 0.00 | 60 | 1013.0 |
| 20260506124555 | 60 | 347 | 3.0 | 11.0 | 0.00 | 0.00 | 0.00 | 57 | 1012.9 |
| 20260506123054 | 59 | 355 | 6.0 | 13.0 | 0.00 | 0.00 | 0.00 | 58 | 1012.8 |
| 20260506121557 | 59 | 269 | 5.0 | 17.0 | 0.00 | 0.00 | 0.00 | 60 | 1012.7 |
| 20260506120100 | 59 | 355 | 5.0 | 17.0 | 0.00 | 0.00 | 0.00 | 61 | 1012.8 |
| 20260506114556 | 57 | 355 | 4.0 | 16.0 | 0.00 | 0.00 | 0.00 | 61 | 1012.8 |
| 20260506113104 | 57 | 22 | 6.0 | 15.0 | 0.00 | 0.00 | 0.00 | 61 | 1012.8 |
| 20260506111557 | 57 | 348 | 7.0 | 15.0 | 0.00 | 0.00 | 0.00 | 61 | 1012.7 |
| 20260506110103 | 56 | 339 | 6.0 | 16.0 | 0.00 | 0.00 | 0.00 | 63 | 1012.8 |
| 20260506104616 | 56 | 5 | 6.0 | 15.0 | 0.00 | 0.00 | 0.00 | 64 | 1012.7 |
| 20260506103057 | 56 | 313 | 8.0 | 15.0 | 0.00 | 0.00 | 0.00 | 65 | 1012.8 |
| 20260506101603 | 55 | 328 | 7.0 | 17.0 | 0.00 | 0.00 | 0.00 | 68 | 1012.6 |
| 20260506100055 | 54 | 10 | 7.0 | 16.0 | 0.00 | 0.00 | 0.00 | 68 | 1012.7 |
| 20260506094559 | 54 | 30 | 7.0 | 17.0 | 0.00 | 0.00 | 0.00 | 69 | 1012.8 |
| 20260506093104 | 52 | 347 | 8.0 | 15.0 | 0.00 | 0.00 | 0.00 | 72 | 1012.7 |
| 20260506091554 | 52 | 315 | 7.0 | 17.0 | 0.00 | 0.00 | 0.00 | 72 | 1012.8 |
| 20260506084557 | 54 | 322 | 5.0 | 13.0 | 0.00 | 0.00 | 0.00 | 72 | 1012.5 |
| 20260506083056 | 53 | 313 | 6.0 | 16.0 | 0.00 | 0.00 | 0.00 | 72 | 1012.4 |
| 20260506081556 | 52 | 355 | 4.0 | 13.0 | 0.00 | 0.00 | 0.00 | 74 | 1012.3 |
| 20260506073104 | 49 | 10 | 4.0 | 13.0 | 0.00 | 0.00 | 0.00 | 79 | 1012.4 |
| 20260506071610 | 48 | 244 | 5.0 | 13.0 | 0.00 | 0.00 | 0.00 | 80 | 1012.3 |
| 20260506070103 | 48 | 355 | 4.0 | 10.0 | 0.00 | 0.00 | 0.00 | 82 | 1012.2 |
| 20260506061557 | 45 | 360 | 3.0 | 12.0 | 0.00 | 0.00 | 0.00 | 85 | 1012.3 |
| 20260506044602 | 45 | 308 | 6.0 | 14.0 | 0.00 | 0.00 | 0.00 | 86 | 1011.9 |